Regional Weather Roundup
Issued by NWS

Home | Current Version | Previous Version | Graphics & Text | Print | Product List | Glossary On
Versions: 1 2 3 4 5 6 7 8 9 10 11 12 13 14 15 16 17 18 19 20 21 22 23 24 25 26 27 28 29 30 31 32 33 34 35 36 37 38 39 40 41 42 43 44 45 46 47 48 49 50
000
ASUS43 KMPX 061801
RWRMN
WEATHER ROUNDUP FOR MINNESOTA
NATIONAL WEATHER SERVICE TWIN CITIES/CHANHASSEN MN
100 PM CDT MON JUL 06 2015


NOTE: "FAIR" INDICATES FEW OR NO CLOUDS BELOW 12,000 FEET WITH NO
SIGNIFICANT WEATHER AND/OR OBSTRUCTIONS TO VISIBILITY. N/A MEANS
CURRENT SKY AND/OR WEATHER CONDITIONS ARE NOT AVAILABLE.

MNZ060>063-068>070-061900-
   Twin Cities Metro

CITY           SKY/WX    TMP DP  RH WIND       PRES   REMARKS
TWIN CITIES    LGT RAIN  65  61  87 N18G30    29.89R FOG
6HR MIN TEMP:  64; 6HR MAX TEMP:  73; 6HR PCP:  0.26;

ST PAUL        LGT RAIN  65  61  87 N17G25    29.89R FOG
CRYSTAL        LGT RAIN  65  60  84 N16G23    29.90R
BLAINE         LGT RAIN  64  63  94 N15G21    29.91R
LAKEVILLE      LGT RAIN  64  63  94 N23G29    29.88R
EDEN PRAIRIE   LGT RAIN  65  61  87 N14       29.88R FOG
6HR MIN TEMP:  65; 6HR MAX TEMP:  73; 6HR PCP:  0.09;

SOUTH ST PAUL  DRIZZLE   64  62  95 N13G24    29.88R
LAKE ELMO      DRIZZLE   63  61  94 N14G24    29.89R
$$
MNZ001>005-007-008-013>017-022>024-027-028-061900-
   Northwest Minnesota

CITY           SKY/WX    TMP DP  RH WIND       PRES   REMARKS
BEMIDJI        MOSUNNY   60  46  60 N12G18    30.03R
HALLOCK        PTSUNNY   63  50  63 N20       30.09F
ROSEAU         PTSUNNY   61  50  67 N15       30.07S
WARROAD        CLOUDY    57  48  72 NW12G22   30.07S
THIEF RVR FALL CLOUDY    61  45  55 NW21G28   30.07F
CROOKSTON      PTSUNNY   61  48  63 N20       30.09S
FOSSTON        PTSUNNY   61  48  63 N15G22    30.06F
DETROIT LAKES  MOSUNNY   63  46  55 N17G29    30.05F
MOORHEAD       MOSUNNY   64  48  55 N22G28    30.08R
PARK RAPIDS    SUNNY     63  47  55 NW18G24   30.01R
MAHNOMEN       FAIR      62  46  56 N20G25    30.05S
$$
MNZ006-009>011-018-025>026-061900-
   North Central Minnesota

CITY           SKY/WX    TMP DP  RH WIND       PRES   REMARKS
BAUDETTE       PTSUNNY   58  46  64 NW18G28   30.02S
FLAG ISLAND    MOSUNNY   57  43  58 N22G28    30.03S
INTL FALLS     MOSUNNY   60  44  55 NW16G24   29.99R
6HR MIN TEMP:  57; 6HR MAX TEMP:  64;

WASKISH        PTSUNNY   61  48  63 NW9G20    30.03S
BIG FORK       MOSUNNY   64  45  48 NW8G16    29.98S
LONGVILLE      MOSUNNY   64  52  63 NW12G23   29.99R
GRAND RAPIDS   PTSUNNY   64  52  63 NW18      29.97S
CRANE LAKE     PTSUNNY   61  52  72 N7        29.96S
COOK           PTSUNNY   64  54  68 NW8       29.95S
WALKER         FAIR      61  48  61 N13G20    30.00R
$$
MNZ012-019>021-037-061900-
   Northeast Minnesota

CITY           SKY/WX    TMP DP  RH WIND       PRES   REMARKS
DULUTH         LGT RAIN  62  58  86 N8        29.93R VSB 3/4
6HR MIN TEMP:  61; 6HR MAX TEMP:  65; 6HR PCP:  0.82;

ELY            CLOUDY    59  52  77 NW6       29.93S HAZE
HIBBING        CLOUDY    63  53  70 N14       29.95R
DULUTH HARBOR  RAIN      61  57  88 E3        29.93R
TWO HARBORS    LGT RAIN  64  61  88 N3        29.91R
SILVER BAY     LGT RAIN  64  61  88 NW3       29.89R
GRAND MARAIS     N/A     56  54  93 CALM      29.88R
G MARAIS ARPRT RAIN      61  54  77 NW3       29.92R
$$
MNZ029>031-032-039>041-046>048-054>057-064-061900-
   West Central Minnesota

CITY           SKY/WX    TMP DP  RH WIND       PRES   REMARKS
FERGUS FALLS   MOSUNNY   64  48  55 N16G23    30.04R
WHEATON        MOSUNNY   64  52  63 N17G23    30.07R
MORRIS         MOSUNNY   70  57  64 N20       30.01R HAZE
ALEXANDRIA     PTSUNNY   69  55  60 N13G25    30.02R HAZE
ELBOW LAKE     FAIR      67  53  61 NW18G24   30.03R
WADENA         SUNNY     66  52  59 N14       30.00R
GLENWOOD       CLOUDY    70  57  64 N18G24    30.00R HAZE
APPLETON       MOSUNNY   72  57  60 N22G28    30.00S HAZE
BENSON         PTSUNNY   72  61  68 N16G22    29.99R HAZE
ORTONVILLE     MOSUNNY   68  54  60 N20G26    30.03S
MADISON        PTSUNNY   68  57  68 N16G26    30.01S HAZE
WILLMAR        FAIR      70  61  73 N21       29.99R HAZE
$$
MNZ033>034-036-042>043-049>051-058-059-061900-
   Central Minnesota

CITY           SKY/WX    TMP DP  RH WIND       PRES   REMARKS
ST CLOUD       CLOUDY    66  61  84 N9G18     29.94R HAZE
6HR MIN TEMP:  63; 6HR MAX TEMP:  68; 6HR PCP:  0.10;

SAUK CENTRE    MOCLDY    68  58  69 NW18G24   29.98R HAZE
PAYNESVILLE    CLOUDY    66  59  78 NW10      29.97R HAZE
AITKIN         CLOUDY    64  57  77 NW8       29.96R HAZE
PINE RIVER       N/A     66  54  63 NW14G20   30.01S
BRAINERD       PTSUNNY   67  55  65 N16       29.98R HAZE
STAPLES        PTSUNNY   68  54  60 N16G22    29.99S
LONG PRAIRIE   CLOUDY    68  57  68 NW13G18   29.99R HAZE
LITTLE FALLS   CLOUDY    68  55  64 N9G17     29.97R HAZE
LITCHFIELD     CLOUDY    70  64  83 N14G20    29.95R HAZE
BUFFALO        LGT RAIN  65  61  87 NW10      29.94R
MAPLE LAKE     CLOUDY    66  64  93 NW9       29.94S FOG
$$
MNZ037-044-045-052-053-061900-
   East Central Minnesota

CITY           SKY/WX    TMP DP  RH WIND       PRES   REMARKS
PRINCETON      DRIZZLE   66  63  88 NW9       29.93R
MORA           LGT RAIN  59  59 100 N3        29.94R
CAMBRIDGE      LGT RAIN  64  57  77 N5        29.90S
RUSH CITY      CLOUDY    62  60  94 N10       29.92R
MOOSE LAKE     LGT RAIN  61  59  94 CALM      29.92R
HINCKLEY       LGT RAIN  63  63 100 N9        29.92S
CLOQUET        LGT RAIN  61  57  88 N6        29.94R
MCGREGOR       CLOUDY    63  59  88 NW13      29.96R
$$
MNZ071>073-080-081-089-090-097-098-061900-
   Southwest Minnesota

CITY           SKY/WX    TMP DP  RH WIND       PRES   REMARKS
GRANITE FALLS  CLOUDY    70  62  76 NW14G20   30.00R HAZE
CANBY          CLOUDY    67  60  77 N17G23    30.03R HAZE
MARSHALL       CLOUDY    68  59  73 N18G25    29.97S
REDWOOD FALLS  CLOUDY    69  60  73 N13       29.95S HAZE
OLIVIA         CLOUDY    68  59  73 N12       29.96R HAZE
PIPESTONE      CLOUDY    66  61  82 N16G25    30.00R HAZE
WINDOM         CLOUDY    68  57  68 N21G28    29.94S HAZE
WORTHINGTON    CLOUDY    70  61  73 N15G23    29.97R
JACKSON        CLOUDY    70  61  73 N13G23    29.94S HAZE
TRACY          CLOUDY    70  65  83 N16G24    29.97F HAZE
SLAYTON        CLOUDY    66  64  91 N18G25    29.99R FOG
$$
MNZ065>067-074>077-082>085-091>093-061900-
   South Central Minnesota

CITY           SKY/WX    TMP DP  RH WIND       PRES   REMARKS
MANKATO        CLOUDY    64  61  88 N24G33    29.91R
NEW ULM        CLOUDY    66  57  72 N14G24    29.92S HAZE
ST JAMES       CLOUDY    70  63  78 N15G22    29.93S HAZE
FAIRMONT       CLOUDY    66  61  82 N20G29    29.91R
GLENCOE        CLOUDY    66  63  89 N12G18    29.92S FOG
FARIBAULT      CLOUDY    68  66  94 N17G26    29.86R
OWATONNA       RAIN      70  66  88 NW20      29.86R
WASECA         DRIZZLE   64  63  94 N18G24    29.89R
ALBERT LEA     RAIN      72  70  94 SW9       29.85S
$$
MNZ078>079-086>088-094>096-061900-
   Southeast Minnesota

CITY           SKY/WX    TMP DP  RH WIND       PRES   REMARKS
ROCHESTER      CLOUDY    75  70  84 W10       29.84S
6HR MIN TEMP:  70; 6HR MAX TEMP:  75; 6HR PCP:  0.11;

RED WING       RAIN      72  70  94 N17G29    29.81R
DODGE CENTER   LGT RAIN  73  72  94 W15       29.84F
WINONA         CLOUDY    77  68  73 SW6       29.81S
AUSTIN         CLOUDY    79  70  73 W15G21    29.84S
PRESTON        CLOUDY    72  67  83 W7        29.85S
$$
ABBREVIATIONS USED IN REMARKS
   TC - TEMPERATURES IN CELSIUS
  WCI - WIND CHILL INDEX
   HX - HEAT INDEX
  VSB - VISIBILITY
$$



USA.gov is the U.S. government's official web portal to all federal, state and local government web resources and services.